This is the latest recevied weather packets stored in our database for station/object WA7CUG. If no packets are shown the sender has not sent any weather packets the latest 10 day(s).
| Time | Temp. | Humidity | Pressure | Rain* | Wind** | Luminosity | Snow |
|---|---|---|---|---|---|---|---|
| 1777568609 | 16.67° C | 52% | 1023.9 hPa | 0 mm | - | 461 W/m² | - |
| 1777568308 | 16.11° C | 54% | 1023.8 hPa | 0 mm | - | 451 W/m² | - |
| 1777568003 | 16.11° C | 52% | 1023.9 hPa | 0 mm | - | 443 W/m² | - |
| 1777567701 | 16.11° C | 55% | 1024 hPa | 0 mm | - | 431 W/m² | - |
| 1777567397 | 15.56° C | 54% | 1024 hPa | 0 mm | - | 420 W/m² | - |
| 1777567095 | 15° C | 55% | 1024 hPa | 0 mm | - | 409 W/m² | - |
| 1777566793 | 15° C | 57% | 1023.8 hPa | 0 mm | - | 394 W/m² | - |
| 1777566490 | 15° C | 58% | 1024.3 hPa | 0 mm | - | 387 W/m² | - |
| 1777566188 | 14.44° C | 57% | 1024.1 hPa | 0 mm | - | 375 W/m² | - |
| 1777565884 | 14.44° C | 57% | 1024.3 hPa | 0 mm | - | 363 W/m² | - |
| 1777565580 | 13.89° C | 59% | 1024.2 hPa | 0 mm | - | 350 W/m² | - |
| 1777565276 | 13.33° C | 60% | 1024.2 hPa | 0 mm | - | 339 W/m² | - |
| 1777564971 | 13.33° C | 62% | 1024.4 hPa | 0 mm | - | 221 W/m² | - |
| 1777564668 | 13.33° C | 62% | 1024.1 hPa | 0 mm | - | 314 W/m² | - |
| 1777564363 | 13.33° C | 62% | 1024.6 hPa | 0 mm | - | 298 W/m² | - |
| 1777564059 | 13.89° C | 62% | 1024.5 hPa | 0 mm | - | 67 W/m² | - |
| 1777563756 | 12.78° C | 64% | 1024.4 hPa | 0 mm | - | 84 W/m² | - |
| 1777563452 | 12.78° C | 65% | 1024.3 hPa | 0 mm | - | 61 W/m² | - |
| 1777563152 | 12.22° C | 68% | 1024.4 hPa | 0 mm | - | 60 W/m² | - |
| 1777562848 | 11.67° C | 70% | 1024.4 hPa | 0 mm | - | 118 W/m² | - |
| 1777562545 | 11.67° C | 70% | 1024.5 hPa | 0 mm | - | 225 W/m² | - |
| 1777562243 | 11.67° C | 71% | 1024.5 hPa | 0 mm | - | 112 W/m² | - |
| 1777561941 | 11.67° C | 72% | 1024.4 hPa | 0 mm | - | 59 W/m² | - |
| 1777561638 | 11.11° C | 71% | 1024.9 hPa | 0 mm | - | 57 W/m² | - |
| 1777561333 | 10.56° C | 73% | 1024.8 hPa | 0 mm | - | 177 W/m² | - |
* Rain latest hour (hover to see other rain measurements)
** Current wind speed in m/s (hover to see current wind gust speed)